Terminal Aerodrome Forecast
Issued by NWS Wichita, KS

Home | Current Version | Previous Version | Text Only | Print | Product List | Glossary On
Versions: 1 2 3 4 5 6 7 8 9 10 11 12 13 14 15 16 17 18 19
000
FTUS43 KICT 230100 AAB
TAFICT
TAF AMD
KICT 230100Z 2301/2324 18010KT P6SM SCT250
     FM230200 35015G25KT P6SM SCT250
     FM230400 02010KT P6SM SCT250
     FM230700 08005KT P6SM SCT100 BKN250
     FM231400 07005KT P6SM SCT100=

USA.gov is the U.S. government's official web portal to all federal, state and local government web resources and services.